Location: Alsip
(41.6689°N, 87.7387°W)
Time: 06:53:36
(UTC+00:00)

CZ-4B R/B - Pass Details

Date: 14 July 2020
Orbit: 390 x 465 km, 97.6° (Epoch: 04 August)

Event Time Altitude Azimuth Distance (km) Brightness Sun altitude
Rises 09:53:28 0° 159° (SSE) 2,479 5.0 -6.4°
Reaches altitude 10° 09:55:30 10° 156° (SSE) 1,613 4.1 -6.1°
Maximum altitude 09:58:56 62° 75° (ENE) 530 2.1 -5.6°
Drops below altitude 10° 10:02:23 10° 355° (N) 1,627 4.7 -5.1°
Sets 10:04:27 0° 352° (N) 2,503 5.6 -4.8°
